Location: El Centro
(32.7920°N, 115.5620°W)
Time: 12:39:31
(UTC-07:00)

Hamsat - Visible Passes

Search period start: 19 April 2018 00:00
Search period end: 29 April 2018 00:00
Orbit: 585 x 617 km, 97.7° (Epoch: 18 April)

Date Brightness Start Highest point End Pass type
(mag) Time Alt. Az. Time Alt. Az. Time Alt. Az.
19 Apr ? 03:56:14 10° NNE 04:00:08 37° E 04:01:23 30° SE visible
19 Apr ? 05:33:24 10° NW 05:35:30 14° WNW 05:37:36 10° W visible
20 Apr ? 04:07:33 10° NNE 04:11:40 53° E 04:13:06 35° SSE visible
21 Apr ? 04:18:58 10° NNE 04:23:10 77° ESE 04:24:49 35° S visible
22 Apr ? 04:30:28 10° N 04:34:39 76° WNW 04:36:32 31° SSW visible
23 Apr ? 04:42:02 10° N 04:46:06 53° WNW 04:48:16 25° SW visible
24 Apr ? 03:19:47 10° ENE 03:21:41 13° E 03:23:12 11° ESE visible
24 Apr ? 04:53:42 10° N 04:57:33 37° WNW 04:59:58 19° SW visible
25 Apr ? 03:30:25 10° NE 03:33:16 18° E 03:34:54 15° ESE visible
25 Apr ? 05:05:27 10° NNW 05:08:58 27° WNW 05:11:42 14° WSW visible
26 Apr ? 03:41:24 10° NE 03:44:49 24° E 03:46:37 18° SE visible
26 Apr ? 05:17:20 10° NNW 05:20:23 20° WNW 05:23:24 10° WSW visible
27 Apr ? 03:52:34 10° NNE 03:56:21 34° E 03:58:19 22° SE visible
27 Apr ? 05:29:25 10° NW 05:31:46 15° WNW 05:34:06 10° WSW visible
28 Apr ? 04:03:51 10° NNE 04:07:52 48° E 04:10:01 24° SSE visible
